Previsão horária em Aberchirder

Hoje, 12 Abril, Segunda-feira

Tempo Temperatura Precipitação Vento Pressão Humidade
00:00 -3°C° 0 mm 4 m/s 756 mmHg 77%
01:00 -3°C° 0 mm 4 m/s 756 mmHg 78%
02:00 -3°C° 0 mm 4 m/s 757 mmHg 78%
03:00 -3°C° 0 mm 4 m/s 757 mmHg 78%
04:00 -3°C° 0 mm 4 m/s 757 mmHg 77%
05:00 -3°C° 0 mm 4 m/s 757 mmHg 76%
06:00 -4°C° 0 mm 5 m/s 757 mmHg 75%
07:00 -2°C° 0 mm 5 m/s 758 mmHg 68%
08:00 0°C° 0 mm 5 m/s 758 mmHg 61%
09:00 +1°C° 0 mm 6 m/s 758 mmHg 54%
10:00 +2°C° 0 mm 5 m/s 758 mmHg 51%
11:00 +3°C° 0 mm 5 m/s 759 mmHg 49%
12:00 +3°C° 0 mm 5 m/s 759 mmHg 46%
13:00 +5°C° 0 mm 4 m/s 759 mmHg 52%
14:00 +5°C° 0 mm 4 m/s 759 mmHg 53%
15:00 +5°C° 0 mm 3 m/s 759 mmHg 53%
16:00 +4°C° 0 mm 3 m/s 759 mmHg 58%
17:00 +4°C° 0 mm 3 m/s 759 mmHg 62%
18:00 +4°C° 0 mm 2 m/s 760 mmHg 67%
19:00 +3°C° 0 mm 2 m/s 760 mmHg 72%
20:00 +1°C° 0 mm 2 m/s 760 mmHg 78%
21:00 -1°C° 0 mm 2 m/s 761 mmHg 83%
22:00 -1°C° 0 mm 2 m/s 761 mmHg 84%
23:00 -1°C° 0 mm 2 m/s 761 mmHg 85%

Amanhã, 13 Abril, Terça-feira

Tempo Temperatura Precipitação Vento Pressão Humidade
00:00 -1°C° 0 mm 2 m/s 761 mmHg 86%
01:00 -1°C° 0 mm 2 m/s 761 mmHg 86%
02:00 -1°C° 0 mm 2 m/s 761 mmHg 86%
03:00 -1°C° 0 mm 2 m/s 761 mmHg 86%
04:00 -1°C° 0 mm 2 m/s 761 mmHg 84%
05:00 -1°C° 0 mm 2 m/s 761 mmHg 83%
06:00 -1°C° 0 mm 2 m/s 761 mmHg 81%
07:00 +2°C° 0 mm 2 m/s 761 mmHg 74%
08:00 +4°C° 0 mm 1 m/s 762 mmHg 66%
09:00 +6°C° 0 mm 1 m/s 762 mmHg 59%
10:00 +7°C° 0 mm 1 m/s 762 mmHg 54%
11:00 +8°C° 0 mm 1 m/s 762 mmHg 50%
12:00 +7°C° 0 mm 2 m/s 762 mmHg 45%
13:00 +7°C° 0 mm 2 m/s 762 mmHg 47%
14:00 +7°C° 0 mm 2 m/s 762 mmHg 48%
15:00 +7°C° 0 mm 2 m/s 762 mmHg 50%
16:00 +7°C° 0 mm 2 m/s 762 mmHg 56%
17:00 +6°C° 0 mm 2 m/s 762 mmHg 62%
18:00 +5°C° 0 mm 2 m/s 762 mmHg 68%
19:00 +4°C° 0 mm 2 m/s 762 mmHg 74%
20:00 +2°C° 0 mm 2 m/s 763 mmHg 79%
21:00 +1°C° 0 mm 2 m/s 763 mmHg 84%
22:00 +1°C° 0 mm 2 m/s 763 mmHg 85%
23:00 +1°C° 0 mm 2 m/s 763 mmHg 85%

Depois de amanhã, 14 Abril, Quarta-feira

Tempo Temperatura Precipitação Vento Pressão Humidade
00:00 +2°C° 0 mm 1 m/s 763 mmHg 86%
01:00 +2°C° 0 mm 1 m/s 763 mmHg 86%
02:00 +2°C° 0 mm 1 m/s 763 mmHg 85%
03:00 +2°C° 0 mm 1 m/s 763 mmHg 85%
04:00 +3°C° 0 mm 1 m/s 763 mmHg 83%
05:00 +3°C° 0 mm 1 m/s 764 mmHg 80%
06:00 +4°C° 0 mm 1 m/s 764 mmHg 78%
07:00 +5°C° 0 mm 1 m/s 764 mmHg 73%
08:00 +5°C° 0 mm 0 m/s 764 mmHg 68%
09:00 +7°C° 0 mm 0 m/s 764 mmHg 64%
10:00 +8°C° 0 mm 1 m/s 764 mmHg 61%
11:00 +9°C° 0 mm 1 m/s 764 mmHg 58%
12:00 +10°C° 0 mm 1 m/s 764 mmHg 56%
13:00 +9°C° 0 mm 2 m/s 764 mmHg 56%
14:00 +9°C° 0 mm 2 m/s 764 mmHg 56%
15:00 +9°C° 0 mm 2 m/s 764 mmHg 57%
16:00 +9°C° 0 mm 2 m/s 764 mmHg 62%
17:00 +8°C° 0 mm 3 m/s 764 mmHg 67%
18:00 +7°C° 0 mm 3 m/s 764 mmHg 72%
19:00 +6°C° 0 mm 2 m/s 765 mmHg 76%
20:00 +4°C° 0 mm 2 m/s 765 mmHg 81%
21:00 +4°C° 0 mm 1 m/s 765 mmHg 85%
22:00 +4°C° 0 mm 1 m/s 765 mmHg 85%
23:00 +4°C° 0 mm 1 m/s 765 mmHg 84%

15 Abril, Quinta-feira

Tempo Temperatura Precipitação Vento Pressão Humidade
00:00 +4°C° 0 mm 1 m/s 765 mmHg 84%
01:00 +3°C° 0 mm 1 m/s 765 mmHg 85%
02:00 +3°C° 0 mm 1 m/s 765 mmHg 86%
03:00 +3°C° 0 mm 1 m/s 765 mmHg 87%
04:00 +2°C° 0 mm 2 m/s 765 mmHg 87%
05:00 +2°C° 0 mm 2 m/s 766 mmHg 87%
06:00 +2°C° 0 mm 2 m/s 766 mmHg 87%
07:00 +4°C° 0 mm 2 m/s 766 mmHg 80%
08:00 +6°C° 0 mm 2 m/s 766 mmHg 73%
09:00 +7°C° 0 mm 3 m/s 766 mmHg 66%
10:00 +8°C° 0 mm 3 m/s 766 mmHg 62%
11:00 +8°C° 0 mm 4 m/s 766 mmHg 58%
12:00 +8°C° 0 mm 5 m/s 766 mmHg 54%
13:00 +8°C° 0 mm 5 m/s 765 mmHg 53%
14:00 +8°C° 0 mm 6 m/s 765 mmHg 52%
15:00 +8°C° 0 mm 6 m/s 765 mmHg 50%
16:00 +7°C° 0 mm 6 m/s 765 mmHg 54%
17:00 +5°C° 0 mm 6 m/s 765 mmHg 58%
18:00 +4°C° 0 mm 6 m/s 765 mmHg 62%
19:00 +3°C° 0 mm 6 m/s 765 mmHg 69%
20:00 +1°C° 0 mm 5 m/s 765 mmHg 76%
21:00 0°C° 0 mm 5 m/s 765 mmHg 82%
22:00 -1°C° 0 mm 5 m/s 765 mmHg 85%
23:00 -1°C° 0 mm 5 m/s 765 mmHg 87%

16 Abril, Sexta-feira

Tempo Temperatura Precipitação Vento Pressão Humidade
00:00 -1°C° 0 mm 4 m/s 765 mmHg 90%
01:00 -2°C° 0 mm 4 m/s 765 mmHg 90%
02:00 -2°C° 0 mm 4 m/s 765 mmHg 91%
03:00 -2°C° 0 mm 4 m/s 765 mmHg 91%
04:00 -1°C° 0 mm 4 m/s 765 mmHg 90%
05:00 -1°C° 0 mm 4 m/s 765 mmHg 89%
06:00 -1°C° 0 mm 4 m/s 765 mmHg 89%
07:00 +1°C° 0 mm 4 m/s 766 mmHg 77%
08:00 +4°C° 0 mm 4 m/s 766 mmHg 65%
09:00 +6°C° 0 mm 5 m/s 766 mmHg 53%
10:00 +7°C° 0 mm 5 m/s 766 mmHg 49%
11:00 +8°C° 0 mm 5 m/s 766 mmHg 45%
12:00 +9°C° 0 mm 5 m/s 766 mmHg 40%
13:00 +9°C° 0 mm 5 m/s 766 mmHg 41%
14:00 +9°C° 0 mm 5 m/s 765 mmHg 41%
15:00 +9°C° 0 mm 5 m/s 765 mmHg 42%
16:00 +8°C° 0 mm 6 m/s 765 mmHg 48%
17:00 +7°C° 0 mm 6 m/s 765 mmHg 54%
18:00 +5°C° 0 mm 6 m/s 765 mmHg 60%
19:00 +4°C° 0 mm 6 m/s 766 mmHg 67%
20:00 +2°C° 0 mm 5 m/s 766 mmHg 73%
21:00 0°C° 0 mm 5 m/s 766 mmHg 80%
22:00 0°C° 0 mm 4 m/s 766 mmHg 81%
23:00 0°C° 0 mm 4 m/s 766 mmHg 82%

17 Abril, Sábado

Tempo Temperatura Precipitação Vento Pressão Humidade
00:00 -1°C° 0 mm 4 m/s 766 mmHg 83%
01:00 -1°C° 0 mm 4 m/s 766 mmHg 82%
02:00 -1°C° 0 mm 4 m/s 766 mmHg 80%
03:00 -1°C° 0 mm 4 m/s 766 mmHg 79%
04:00 -1°C° 0 mm 4 m/s 765 mmHg 77%
05:00 0°C° 0 mm 4 m/s 765 mmHg 76%
06:00 0°C° 0 mm 4 m/s 765 mmHg 74%
07:00 +3°C° 0 mm 4 m/s 765 mmHg 67%
08:00 +5°C° 0 mm 4 m/s 765 mmHg 60%
09:00 +7°C° 0 mm 5 m/s 765 mmHg 53%
10:00 +8°C° 0 mm 5 m/s 765 mmHg 50%
11:00 +9°C° 0 mm 5 m/s 764 mmHg 47%
12:00 +10°C° 0 mm 5 m/s 764 mmHg 44%
13:00 +10°C° 0 mm 6 m/s 764 mmHg 44%
14:00 +10°C° 0 mm 6 m/s 763 mmHg 44%
15:00 +10°C° 0 mm 6 m/s 763 mmHg 45%
16:00 +9°C° 0 mm 6 m/s 763 mmHg 50%
17:00 +8°C° 0 mm 6 m/s 763 mmHg 56%
18:00 +7°C° 0 mm 6 m/s 763 mmHg 62%
19:00 +6°C° 0 mm 5 m/s 763 mmHg 68%
20:00 +3°C° 0 mm 5 m/s 763 mmHg 74%
21:00 +3°C° 0 mm 4 m/s 763 mmHg 80%
22:00 +1°C° 0 mm 4 m/s 763 mmHg 81%
23:00 +1°C° 0 mm 4 m/s 763 mmHg 82%
Mostrar mais